Tracking 29892 objects as of 21-Nov-2024
HD Live streaming from Space Station
objects crossing your sky now

SL-8 R/B

Track SL-8 R/B now!
10-day predictions


NORAD ID: 12836
Int'l Code: 1981-091B
Perigee: 965.8 km
Apogee: 999.6 km
Inclination: 82.9 °
Period: 104.6 minutes
Semi major axis: 7353 km
RCS: 4.3972 m2 (large)
Launch date: September 18, 1981
Source: Commonwealth of Independent States (former USSR) (CIS)
Launch site: PLESETSK MISSILE AND SPACE COMPLEX (PKMTR)

Note: This is a ROCKET BODY
Your satellite tracking list
Your tracking list is empty




NASA's NSSDC Master Catalog

Two Line Element Set (TLE):
1 12836U 81091B   24325.66433802  .00000105  00000-0  90850-4 0  9999
2 12836  82.9206 216.3972 0022950 163.2951 214.8171 13.76712249552024
Source of the keplerian elements: AFSPC